Location: Most
(50.5330°N, 13.6500°E)
Time: 00:58:21
(UTC+01:00)

ISS - Visible Passes

Search period start: 19 November 2019 00:00
Search period end: 29 November 2019 00:00
Orbit: 412 x 421 km, 51.6° (Epoch: 19 November)

Date Brightness Start Highest point End Pass type
(mag) Time Alt. Az. Time Alt. Az. Time Alt. Az.
22 Nov -1.4 18:28:58 10° SSW 18:29:57 15° S 18:29:57 15° S visible
23 Nov -1.6 17:41:30 10° S 17:43:22 14° SE 17:43:43 14° SE visible
23 Nov -0.6 19:16:16 10° SW 19:16:38 13° SW 19:16:38 13° SW visible
24 Nov -2.4 18:28:03 10° SW 18:30:19 32° S 18:30:19 32° S visible
25 Nov -2.5 17:39:58 10° SSW 17:42:54 28° SSE 17:43:56 23° ESE visible
25 Nov -0.8 19:16:02 10° WSW 19:16:51 16° WSW 19:16:51 16° WSW visible
26 Nov -1.9 16:52:07 10° S 16:54:37 20° SE 16:57:09 10° E visible
26 Nov -3.2 18:27:38 10° WSW 18:30:24 55° SW 18:30:24 55° SW visible
27 Nov -3.4 17:39:17 10° SW 17:42:33 54° SSE 17:43:54 30° E visible
27 Nov -0.8 19:15:56 10° W 19:16:48 17° W 19:16:48 17° W visible
28 Nov -2.8 16:51:02 10° SW 16:54:11 38° SSE 16:57:21 10° E visible
28 Nov -3.3 18:27:26 10° W 18:30:16 59° W 18:30:16 59° W visible
